Location: Unspecified
(40.8819°N, 0.0000°E)
Time: 12:13:39
(UTC+00:00)

SEEDS - Pass Details

Date: 21 April 2026
Orbit: 468 x 474 km, 97.8° (Epoch: 17 May)

Event Time Altitude Azimuth Distance (km) Brightness Sun altitude
Rises 04:39:34 0° 29° (NNE) 2,518 ? -6.7°
Maximum altitude 04:44:36 18° 95° (E) 1,205 ? -5.8°
Drops below altitude 10° 04:47:05 10° 140° (SE) 1,621 ? -5.3°
Sets 04:49:35 0° 160° (SSE) 2,491 ? -4.9°
